Showing default

NUSAT-43 (R DIENG-KUNTZ), 56968

Orbit data source: Space-Track

NUSAT-43 (R DIENG-KUNTZ), 56968 is a payload satellite owned by URUGUS S.A. (AR) in SSO that was launched on Mon, 12 Jun 2023 UTC via an FALCON 9 launch vehicle from the Air Force Western Test Range (AFWTR). Payload-class satellites include a variety of spacecraft equipped with specific instruments for various scientific and technological missions. These include communications satellites like Starlink; space stations such as the ISS; scientific satellites like the Hubble; Earth observation satellites from companies like Planet Labs, Umbra, and HawkEye 360; GPS; miniature CubeSats for education and research; and military/defense satellites.

Loading next visibility...
Identifier
56968, 2023-084AN
Orbit
SSO
Last TLE update
11 hours ago
Origin
Manufacturer
URUGUS S.A.
Mission
Operational Commercial Imaging
Bus & Motor
NEWSAT V, Unknown motor
Mass
41.5 kg wet, 38.5 kg dry
Launch date (UTC)
2023-06-12 (2 years ago)
Launch vehicle
FALCON 9
Launch site
Air Force Western Test Range (AFWTR)
Object type
Payload
Rocket body
Debris
Shape & HBR
Box, 0.813 m
Radar Cross Section
0.542 m², Medium (>0.1 m² and < 1m²)

Expand to show TLE details & history

TLE from 11 hours ago
0 NUSAT-43 (R DIENG-KUNTZ)
1 56968U 23084AN  25188.89842225  .00018532  00000-0  39514-3 0  9999
2 56968  97.4212 316.3027 0007720  51.4080 308.7859 15.44927618115506
Epoch: 2025-07-07T21:33Z
TLE epoch observation values (Epoch: 2025-07-07T21:33:43.682Z)
Latitude
-0.00001°
Longitude
66.76954°
Altitude
431.423 km
Speed
7.655 km/s
True Right ascension
21h 05m 12s
True Declination
0° 00' 00"
Sunlit
Object was in full shadow at epoch
Visualization orbit readout
Latitude
41.95717°
Longitude
-106.05451°
Altitude
437.579 km
Speed
7.653 km/s
Apparent Right ascension
09h 21m 12s
Apparent Declination
2° 39' 59"
Sunlit
Object is in daylight
Visualization observer readout
Local Sidereal Time
21:08:01
Azimuth
355.145° N
Elevation
-47.31°
Doppler factor
1
Orbital elements
Apogee altitude
433.779 km
Perigee altitude
423.269 km
Semi-major axis
6,806.661 km
Eccentricity
0.00077
Inclination
97.4212°
RAAN
316.3027°
Arg. of periapsis
51.408°
True anomaly
Unknown
Mean anomaly
308.7859°
Eccentric anomaly
Unknown
Mean motion
3.86493 °/min
Orbital period
93.15 mins
BSTAR
0.00039514
Loading maneuver chart data...
Loading SW <> Apogee altitude chart data...
Loading historical data...
Loading historical data...
Loading historical data...
Loading historical data...
Loading historical data...
Loading historical data...
Loading historical data...

NUSAT-43 (R DIENG-KUNTZ) Visibility forecast

Observer location: undefined°, undefined°

Span
Click to sort rows by Start time (UTC) header in descending order
Start Az.
Max El. time (UTC)
Max El. Az.
Max El.
End time (UTC)
End Az.
5 mins2025-07-08 21:26:12.639Z9.842° NNE2025-07-08 21:29:12.639Z210.512° SW42.642°2025-07-08 21:31:12.639Z196.056° SSW
|